Location: Burbank
(38.7788°N, 114.0429°W)
Time: 11:10:59
(UTC+00:00)

Vanguard 2 Rocket - Pass Details

Date: 17 May 2026
Orbit: 553 x 3286 km, 32.9° (Epoch: 11 June)

Event Time Altitude Azimuth Distance (km) Brightness Sun altitude
Rises 19:39:21 0° 260° (W) 5,375 10.9 70.6°
Reaches altitude 10° 19:42:21 10° 258° (WSW) 4,676 10.8 70.6°
Maximum altitude 19:56:47 72° 178° (S) 3,047 12.5 70.0°
Drops below altitude 10° 20:16:51 10° 99° (E) 6,212 11.2 68.5°
Sets 20:21:33 0° 98° (E) 7,147 11.4 68.0°
